Llanes en Asturias

latitud = 43° 25' 13''N | longitud = 004° 44' 53''W
10 metros sobre el nivel del mar | datos mensuales

Fecha, hora, temperatura, viento dirección y velocidad, humedad y presión.

  • 22-11-2017 09:00:00 | 12.50°C | Sudoeste |4.00 km/h | 48.00% | 1007.30 hPa
  • 22-11-2017 08:00:00 | 12.60°C | Sudoeste |9.00 km/h | 39.00% | 1007.30 hPa
  • 22-11-2017 07:00:00 | 11.10°C | Oeste |8.00 km/h | 50.00% | 1007.70 hPa
  • 22-11-2017 06:00:00 | 10.00°C | Oeste |5.00 km/h | 55.00% | 1007.80 hPa
  • 22-11-2017 05:00:00 | 10.00°C | Oeste |4.00 km/h | 54.00% | 1008.90 hPa
  • 22-11-2017 04:00:00 | 10.00°C | Sur |4.00 km/h | 54.00% | 1009.70 hPa
  • 22-11-2017 03:00:00 | 10.50°C | Oeste |5.00 km/h | 51.00% | 1010.40 hPa
  • 22-11-2017 02:00:00 | 9.60°C | Sur |4.00 km/h | 58.00% | 1011.20 hPa
  • 22-11-2017 01:00:00 | 9.30°C | Sudoeste |6.00 km/h | 59.00% | 1012.30 hPa
  • 22-11-2017 00:00:00 | 9.50°C | Sur |3.00 km/h | 62.00% | 1013.00 hPa
  • 21-11-2017 23:00:00 | 9.80°C | Sudoeste |3.00 km/h | 63.00% | 1013.60 hPa
  • 21-11-2017 22:00:00 | 9.80°C | Sudoeste |10.00 km/h | 62.00% | 1013.80 hPa
  • 21-11-2017 21:00:00 | 10.40°C | Sudoeste |2.00 km/h | 64.00% | 1014.20 hPa
  • 21-11-2017 20:00:00 | 10.20°C | Oeste |11.00 km/h | 67.00% | 1014.70 hPa
  • 21-11-2017 19:00:00 | 11.10°C | Sudoeste |8.00 km/h | 69.00% | 1015.20 hPa
  • 21-11-2017 18:00:00 | 13.40°C | Norte |2.00 km/h | 63.00% | 1015.30 hPa
  • 21-11-2017 17:00:00 | 14.80°C | Sudeste |7.00 km/h | 56.00% | 1015.70 hPa
  • 21-11-2017 16:00:00 | 15.70°C | Este |7.00 km/h | 66.00% | 1015.90 hPa
  • 21-11-2017 15:00:00 | 17.80°C | Este |5.00 km/h | 58.00% | 1016.40 hPa
  • 21-11-2017 14:00:00 | 18.20°C | Sudeste |3.00 km/h | 55.00% | 1017.00 hPa
  • 21-11-2017 13:00:00 | 16.80°C | Sudeste |4.00 km/h | 54.00% | 1017.40 hPa
  • 21-11-2017 12:00:00 | 16.80°C | Este |5.00 km/h | 58.00% | 1018.80 hPa
  • 21-11-2017 11:00:00 | 16.50°C | Sur |2.00 km/h | 56.00% | 1018.90 hPa
  • 21-11-2017 10:00:00 | 12.40°C | Sur |5.00 km/h | 57.00% | 1019.00 hPa